Date,TemperatureHighF,TemperatureAvgF,TemperatureLowF,DewpointHighF,DewpointAvgF,DewpointLowF,HumidityHigh,HumidityAvg,HumidityLow,PressureMaxIn,PressureMinIn,WindSpeedMaxMPH,WindSpeedAvgMPH,GustSpeedMaxMPH,PrecipitationSumIn
2013-1-1,16.0,4.2,-6.0,4.0,-4.4,-11.0,83,68,46,0.00,40.00,11,5,20,0.00
2013-1-2,23.0,17.1,8.0,15.0,9.7,3.0,81,72,60,0.00,40.00,8,4,15,0.00
2013-1-3,27.0,19.8,14.0,17.0,13.0,8.0,81,75,66,0.00,40.00,10,6,19,0.00
2013-1-4,31.0,19.4,12.0,17.0,12.2,6.0,89,74,56,0.00,40.00,10,7,23,0.00
2013-1-5,30.0,16.7,3.0,18.0,11.6,-1.0,92,81,60,0.00,40.00,6,3,13,0.00
2013-1-6,34.0,24.6,14.0,23.0,18.5,12.0,96,79,54,0.00,40.00,10,5,22,0.00
2013-1-7,38.0,23.2,9.0,23.0,16.0,6.0,93,75,52,0.00,40.00,10,6,26,0.00
2013-1-8,36.0,25.6,13.0,30.0,21.9,11.0,96,86,68,0.00,40.00,9,4,22,0.02
2013-1-9,39.0,33.3,22.0,31.0,24.2,18.0,85,70,51,0.00,40.00,14,9,29,0.13
2013-1-10,38.0,28.6,16.0,34.0,23.2,14.0,100,82,50,0.00,40.00,6,3,14,0.32
2013-1-11,40.0,35.9,33.0,40.0,35.9,33.0,100,100,99,0.00,40.00,6,3,12,0.79
2013-1-12,41.0,32.4,20.0,41.0,26.6,11.0,100,80,64,0.00,40.00,14,8,33,0.15
2013-1-13,23.0,16.9,10.0,11.0,7.7,-1.0,85,67,56,0.00,40.00,10,6,21,0.01
2013-1-14,19.0,10.3,2.0,7.0,2.0,-2.0,85,69,49,0.00,40.00,11,6,21,0.00
2013-1-15,29.0,13.9,-2.0,15.0,5.6,-7.0,87,71,49,0.00,40.00,8,4,21,0.00
2013-1-16,30.0,24.0,17.0,25.0,16.3,8.0,81,72,54,0.00,40.00,9,7,22,0.00
2013-1-17,20.0,10.6,-2.0,8.0,-0.8,-6.0,82,61,35,0.00,40.00,10,5,20,0.00
2013-1-18,31.0,15.2,-4.0,23.0,10.2,-9.0,96,81,64,0.00,40.00,7,3,14,0.00
2013-1-19,42.0,27.0,12.0,33.0,20.9,-3.0,97,79,48,0.00,40.00,16,6,37,0.08
2013-1-20,12.0,5.8,1.0,-3.0,-8.9,-13.0,62,50,36,0.00,40.00,16,8,38,0.01
2013-1-21,1.0,-4.8,-12.0,-10.0,-18.3,-25.0,69,52,35,0.00,40.00,12,8,24,0.00
2013-1-22,2.0,-6.2,-13.0,-15.0,-19.6,-22.0,62,52,35,0.00,40.00,9,6,17,0.00
2013-1-23,13.0,1.8,-10.0,4.0,-7.0,-17.0,79,66,55,0.00,40.00,10,5,21,0.00
2013-1-24,13.0,4.6,-9.0,3.0,-7.3,-15.0,75,58,39,0.00,40.00,7,4,15,0.00
2013-1-25,22.0,14.3,8.0,15.0,10.3,3.0,89,84,73,0.00,40.00,6,4,12,0.00
2013-1-26,26.0,14.0,0.0,13.0,6.1,-4.0,88,72,48,0.00,40.00,7,4,14,0.00
2013-1-27,32.0,25.8,20.0,32.0,19.8,11.0,100,78,60,0.00,40.00,6,4,12,0.03
2013-1-28,39.0,33.1,28.0,36.0,32.3,28.0,100,97,84,0.00,40.00,6,2,11,0.42
2013-1-29,39.0,33.9,28.0,39.0,33.9,28.0,100,100,100,0.00,40.00,5,3,14,0.24
2013-1-30,33.0,25.6,15.0,33.0,24.1,11.0,100,94,85,0.00,40.00,8,6,25,0.01
2013-1-31,17.0,10.9,3.0,12.0,2.0,-4.0,86,67,58,0.00,40.00,10,8,21,0.00
2013-2-1,5.0,-0.6,-6.0,-4.0,-10.6,-14.0,79,62,48,0.00,40.00,8,6,20,0.00
2013-2-2,16.0,4.9,-1.0,-1.0,-5.0,-9.0,81,64,40,0.00,40.00,7,3,15,0.00
2013-2-3,17.0,6.3,-4.0,2.0,-2.1,-9.0,82,69,47,0.00,40.00,11,5,24,0.00
2013-2-4,20.0,5.3,-4.0,-1.0,-4.8,-9.0,81,66,33,0.00,40.00,6,3,13,0.00
2013-2-5,25.0,12.8,0.0,17.0,7.6,-5.0,90,79,62,0.00,40.00,8,4,20,0.00
2013-2-6,25.0,11.4,-7.0,21.0,5.8,-12.0,96,79,52,0.00,40.00,6,3,11,0.00
2013-2-7,26.0,23.6,22.0,26.0,22.7,21.0,100,96,93,0.00,40.00,7,5,18,0.00
2013-2-8,28.0,18.1,6.0,21.0,13.6,3.0,94,83,58,0.00,40.00,7,4,16,0.10
2013-2-9,24.0,12.4,-4.0,22.0,9.1,-9.0,91,86,79,0.00,40.00,7,3,14,0.02
2013-2-10,33.0,29.2,24.0,33.0,28.5,22.0,100,97,90,0.00,40.00,8,4,19,0.31
2013-2-11,36.0,32.1,26.0,36.0,28.6,19.0,100,87,69,0.00,40.00,12,8,27,0.56
2013-2-12,30.0,22.7,15.0,19.0,15.8,13.0,94,75,51,0.00,40.00,8,6,21,0.03
2013-2-13,39.0,26.4,11.0,29.0,21.1,9.0,97,82,58,0.00,40.00,6,4,11,0.10
2013-2-14,37.0,29.4,19.0,32.0,26.5,11.0,100,89,70,0.00,40.00,10,5,20,0.12
2013-2-15,28.0,14.9,3.0,13.0,5.9,-3.0,91,69,44,0.00,40.00,11,6,21,0.06
2013-2-16,23.0,7.4,-4.0,5.0,-3.4,-8.0,82,64,34,0.00,40.00,6,4,14,0.01
2013-2-17,22.0,5.4,-15.0,4.0,-6.9,-22.0,81,59,35,0.00,40.00,8,3,16,0.02
2013-2-18,41.0,28.8,12.0,30.0,21.6,3.0,95,75,53,0.00,40.00,8,4,13,0.21
2013-2-19,31.0,17.0,5.0,31.0,9.7,-5.0,100,74,52,0.00,40.00,16,10,31,0.01
2013-2-20,29.0,14.8,1.0,7.0,2.8,-3.0,84,60,35,0.00,40.00,9,6,27,0.10
2013-2-21,30.0,14.7,-2.0,19.0,7.8,-6.0,89,75,51,0.00,40.00,10,5,23,0.07
2013-2-22,29.0,25.2,22.0,27.0,23.3,18.0,98,92,83,0.00,40.00,9,6,21,0.01
2013-2-23,33.0,26.0,20.0,26.0,22.3,19.0,97,87,63,0.00,40.00,10,4,17,0.17
2013-2-24,41.0,28.2,20.0,26.0,22.2,19.0,99,80,45,0.00,40.00,5,3,13,0.31
2013-2-25,40.0,25.3,13.0,25.0,20.0,11.0,96,82,52,0.00,40.00,5,2,11,0.09
2013-2-26,38.0,28.1,17.0,28.0,23.0,16.0,98,82,58,0.00,40.00,15,8,28,0.00
2013-2-27,35.0,32.1,29.0,30.0,26.4,22.0,94,80,73,0.00,40.00,10,8,24,0.05
2013-2-28,33.0,30.3,24.0,27.0,20.6,12.0,87,68,52,0.00,40.00,9,7,26,0.01
2013-3-1,35.0,26.0,16.0,15.0,11.3,4.0,69,54,38,0.00,40.00,10,6,21,0.01
2013-3-2,37.0,19.7,8.0,12.0,4.8,1.0,84,56,27,0.00,40.00,6,4,16,0.00
2013-3-3,37.0,17.4,-1.0,10.0,2.4,-5.0,84,57,22,0.00,40.00,6,3,13,0.00
2013-3-4,33.0,18.8,1.0,15.0,8.0,-3.0,85,65,44,0.00,40.00,10,4,16,0.00
2013-3-5,32.0,27.5,23.0,20.0,16.6,12.0,76,63,46,0.00,40.00,10,7,21,0.00
2013-3-6,38.0,30.2,26.0,26.0,22.1,17.0,91,73,55,0.00,40.00,6,4,19,0.00
2013-3-7,40.0,25.1,10.0,18.0,12.8,8.0,91,63,35,0.00,40.00,6,4,13,0.00
2013-3-8,42.0,24.0,7.0,23.0,15.7,4.0,95,73,46,0.00,40.00,9,4,16,0.00
2013-3-9,37.0,30.2,22.0,34.0,27.9,21.0,100,91,74,0.00,40.00,8,4,16,0.31
2013-3-10,40.0,34.8,31.0,38.0,33.6,31.0,100,96,82,0.00,40.00,12,5,26,0.46
2013-3-11,40.0,32.6,25.0,34.0,29.7,22.0,100,90,75,0.00,40.00,9,6,22,0.52
2013-3-12,32.0,25.9,19.0,22.0,17.8,11.0,87,71,56,0.00,40.00,9,6,20,0.03
2013-3-13,41.0,26.3,16.0,16.0,10.1,3.0,89,56,21,0.00,40.00,9,6,28,0.01
2013-3-14,42.0,25.8,7.0,24.0,11.6,4.0,87,60,26,0.00,40.00,8,4,14,0.01
2013-3-15,38.0,31.2,22.0,32.0,24.6,14.0,90,77,60,0.00,40.00,8,5,16,0.01
2013-3-16,38.0,24.5,17.0,18.0,11.8,8.0,87,61,34,0.00,40.00,10,6,20,0.10
2013-3-17,31.0,19.2,8.0,10.0,3.7,-2.0,80,52,29,0.00,40.00,10,6,19,0.04
2013-3-18,30.0,21.5,10.0,27.0,17.9,7.0,98,86,71,0.00,40.00,12,5,24,0.00
2013-3-19,34.0,22.2,15.0,14.0,8.8,3.0,83,58,37,0.00,40.00,13,11,29,0.28
2013-3-20,27.0,17.5,8.0,5.0,0.8,-4.0,64,49,32,0.00,40.00,12,8,22,0.01
2013-3-21,38.0,20.0,4.0,14.0,7.6,-1.0,81,61,36,0.00,40.00,9,6,18,0.01
2013-3-22,43.0,23.2,5.0,18.0,11.0,2.0,89,63,34,0.00,40.00,6,4,14,0.00
2013-3-23,40.0,30.4,24.0,24.0,19.4,15.0,79,64,47,0.00,40.00,5,3,11,0.00
2013-3-24,37.0,30.9,26.0,21.0,19.4,14.0,79,63,48,0.00,40.00,9,6,20,0.00
2013-3-25,40.0,30.6,22.0,23.0,19.6,14.0,86,65,46,0.00,40.00,9,6,21,0.00
2013-3-26,45.0,34.9,28.0,28.0,21.7,19.0,77,60,38,0.00,40.00,7,5,19,0.00
2013-3-27,52.0,36.4,26.0,25.0,21.2,16.0,83,59,27,0.00,40.00,8,5,18,0.00
2013-3-28,54.0,41.9,28.0,19.0,17.1,15.0,68,39,23,0.00,40.00,8,6,16,0.00
2013-3-29,56.0,36.8,20.0,25.0,18.9,16.0,90,55,21,0.00,40.00,8,3,17,0.00
2013-3-30,39.0,33.7,26.0,38.0,28.0,-99.9,100,86,62,0.00,40.00,7,4,13,0.22
2013-3-31,49.0,36.7,28.0,37.0,27.7,13.0,100,73,45,0.00,40.00,14,8,35,0.06
2013-4-1,38.0,27.8,19.0,16.0,7.2,3.0,61,43,26,0.00,40.00,13,8,26,0.00
2013-4-2,44.0,29.2,16.0,13.0,8.0,4.0,72,44,22,0.00,40.00,12,6,22,0.00
2013-4-3,48.0,29.4,12.0,18.0,9.8,3.0,85,50,16,0.00,40.00,9,4,16,0.00
2013-4-4,54.0,39.9,28.0,38.0,23.2,17.0,66,52,37,0.00,40.00,11,7,26,0.00
2013-4-5,48.0,35.9,22.0,24.0,18.4,15.0,86,52,30,0.00,40.00,7,4,13,0.00
2013-4-6,49.0,36.2,29.0,38.0,32.5,23.0,100,88,55,0.00,40.00,9,5,18,0.36
2013-4-7,53.0,39.6,29.0,36.0,30.8,27.0,100,75,41,0.00,40.00,9,6,18,0.19
2013-4-8,38.0,34.7,29.0,37.0,33.4,27.0,100,96,87,0.00,40.00,8,4,18,0.15
2013-4-9,41.0,34.5,30.0,40.0,32.4,21.0,100,93,59,0.00,40.00,9,5,24,0.42
2013-4-10,44.0,35.8,29.0,29.0,24.7,13.0,100,67,37,0.00,40.00,10,8,21,0.53
2013-4-11,35.0,31.9,28.0,28.0,24.5,15.0,97,76,43,0.00,40.00,14,10,29,0.27
2013-4-12,38.0,31.7,29.0,32.0,29.4,28.0,100,92,76,0.00,40.00,9,5,22,0.25
2013-4-13,43.0,34.1,26.0,31.0,25.2,18.0,100,73,42,0.00,40.00,10,5,22,0.40
2013-4-14,37.0,29.4,20.0,31.0,25.5,19.0,97,87,52,0.00,40.00,9,5,19,0.03
2013-4-15,59.0,41.6,33.0,44.0,32.9,25.0,100,76,33,0.00,40.00,14,6,30,0.60
2013-4-16,54.0,40.1,29.0,30.0,26.5,23.0,85,61,34,0.00,40.00,10,5,21,0.05
2013-4-17,40.0,35.8,29.0,35.0,29.9,25.0,92,79,64,0.00,40.00,9,6,18,0.04
2013-4-18,41.0,37.3,35.0,40.0,37.0,34.0,100,99,90,0.00,40.00,10,6,20,0.45
2013-4-19,41.0,34.0,26.0,38.0,25.6,14.0,100,74,44,0.00,40.00,16,9,31,0.29
2013-4-20,44.0,30.8,19.0,18.0,12.7,5.0,90,52,21,0.00,40.00,9,6,20,0.01
2013-4-21,41.0,31.7,20.0,31.0,23.6,15.0,91,73,49,0.00,40.00,10,5,22,0.01
2013-4-22,46.0,40.6,36.0,46.0,39.2,27.0,100,96,63,0.00,40.00,7,4,16,0.27
2013-4-23,43.0,38.3,31.0,39.0,33.7,25.0,100,85,62,0.00,40.00,8,5,20,0.14
2013-4-24,52.0,39.2,26.0,26.0,23.0,16.0,96,59,26,0.00,40.00,13,6,26,0.01
2013-4-25,51.0,41.2,28.0,34.0,27.5,22.0,100,62,35,0.00,40.00,11,7,24,0.02
2013-4-26,72.0,47.0,27.0,50.0,34.5,23.0,100,68,27,0.00,40.00,10,5,25,0.09
2013-4-27,73.0,55.8,38.0,53.0,45.6,38.0,100,74,38,0.00,40.00,10,5,20,0.06
2013-4-28,74.0,55.9,36.0,47.0,41.3,36.0,100,65,30,0.00,40.00,8,4,18,0.00
2013-4-29,72.0,54.9,48.0,57.0,49.8,43.0,100,85,55,0.00,40.00,9,3,15,0.10
2013-4-30,87.0,77.2,50.0,59.0,53.6,50.0,100,47,31,0.00,40.00,12,8,26,0.00
2013-5-1,75.0,62.2,45.0,53.0,43.8,32.0,88,53,37,0.00,40.00,10,6,21,0.00
2013-5-2,47.0,41.0,34.0,33.0,31.4,30.0,94,70,57,0.00,40.00,9,7,25,0.07
2013-5-3,42.0,36.7,33.0,42.0,35.3,31.0,100,95,87,0.00,40.00,9,6,16,0.29
2013-5-4,75.0,55.1,40.0,48.0,43.7,40.0,100,71,32,0.00,40.00,7,4,15,0.04
2013-5-5,75.0,54.5,41.0,45.0,40.6,38.0,97,64,28,0.00,40.00,7,4,13,0.00
2013-5-6,79.0,55.5,37.0,44.0,38.7,34.0,100,63,21,0.00,40.00,7,3,15,0.00
2013-5-7,81.0,59.6,37.0,46.0,37.0,31.0,100,55,17,0.00,40.00,7,4,15,0.00
2013-5-8,83.0,62.6,40.0,47.0,40.3,34.0,98,54,19,0.00,40.00,5,3,12,0.00
2013-5-9,66.0,53.2,40.0,54.0,45.7,39.0,98,79,41,0.00,40.00,10,4,24,0.43
2013-5-10,64.0,47.5,36.0,43.0,35.6,-99.9,98,72,29,0.00,40.00,9,6,23,0.49
2013-5-11,52.0,42.4,34.0,44.0,32.9,-99.9,100,78,36,0.00,40.00,13,7,32,0.11
2013-5-12,53.0,41.1,30.0,31.0,21.7,14.0,86,49,25,0.00,40.00,12,8,29,0.02
2013-5-13,62.0,43.0,23.0,34.0,22.9,17.0,92,53,20,0.00,40.00,9,4,17,0.00
2013-5-14,77.0,55.8,37.0,49.0,39.8,31.0,85,58,31,0.00,40.00,9,5,17,0.00
2013-5-15,81.0,67.0,47.0,51.0,39.8,33.0,96,46,18,0.00,40.00,12,7,26,0.00
2013-5-16,78.0,54.2,44.0,52.0,14.0,-99.9,97,48,28,0.00,40.00,10,6,18,0.00
2013-5-17,60.0,51.9,48.0,47.0,34.5,-99.9,83,66,48,0.00,40.00,7,4,14,0.00
2013-5-18,75.0,61.6,51.0,60.0,52.1,46.0,100,72,51,0.00,40.00,7,5,15,0.00
2013-5-19,84.0,68.8,51.0,64.0,59.0,51.0,100,75,45,0.00,40.00,9,5,21,0.00
2013-5-20,86.0,70.2,59.0,67.0,59.2,54.0,100,72,38,0.00,40.00,10,6,21,0.09
2013-5-21,76.0,66.7,61.0,68.0,62.2,59.0,100,87,59,0.00,40.00,7,4,17,0.54
2013-5-22,61.0,56.6,51.0,61.0,56.2,51.0,100,99,94,0.00,40.00,8,5,17,0.53
2013-5-23,62.0,50.3,40.0,51.0,37.4,28.0,100,67,30,0.00,40.00,9,7,27,0.45
2013-5-24,66.0,47.9,29.0,39.0,32.8,29.0,100,62,29,0.00,40.00,7,4,12,0.02
2013-5-25,68.0,52.0,35.0,45.0,37.3,33.0,100,64,35,0.00,40.00,7,4,14,0.00
2013-5-26,69.0,51.9,33.0,44.0,37.1,31.0,100,65,26,0.00,40.00,9,5,16,0.00
2013-5-27,67.0,53.6,39.0,49.0,43.3,39.0,100,71,42,0.00,40.00,10,5,22,0.00
2013-5-28,56.0,53.3,50.0,56.0,53.3,49.0,100,100,94,0.00,40.00,5,3,11,0.10
2013-5-29,84.0,64.7,54.0,67.0,60.2,54.0,100,88,54,0.00,40.00,6,3,23,0.07
2013-5-30,85.0,70.8,60.0,71.0,65.2,60.0,100,85,53,0.00,40.00,13,6,37,1.45
2013-5-31,79.0,69.8,62.0,66.0,63.2,61.0,100,81,60,0.00,40.00,10,7,20,1.28
2013-6-1,76.0,65.6,56.0,69.0,61.5,56.0,100,88,61,0.00,40.00,11,4,21,0.32
2013-6-2,66.0,52.7,43.0,59.0,41.8,36.0,100,70,36,0.00,40.00,9,6,27,0.17
2013-6-3,75.0,56.6,38.0,49.0,42.0,38.0,100,66,28,0.00,40.00,9,4,19,0.00
2013-6-4,58.0,52.0,48.0,53.0,46.5,42.0,100,83,56,0.00,40.00,7,3,14,0.16
2013-6-5,57.0,51.0,48.0,55.0,50.6,48.0,100,98,85,0.00,40.00,7,4,14,0.67
2013-6-6,57.0,51.8,49.0,54.0,50.5,49.0,100,96,75,0.00,40.00,7,4,14,0.59
2013-6-7,72.0,56.2,48.0,53.0,47.4,43.0,100,76,40,0.00,40.00,5,3,10,0.01
2013-6-8,71.0,58.8,50.0,58.0,52.2,47.0,100,82,46,0.00,40.00,6,2,12,0.00
2013-6-9,74.0,58.9,45.0,60.0,54.0,45.0,100,86,57,0.00,40.00,8,4,17,0.03
2013-6-10,80.0,68.1,54.0,66.0,60.6,54.0,100,79,58,0.00,40.00,6,4,14,0.03
2013-6-11,84.0,69.0,55.0,67.0,61.3,55.0,100,79,47,0.00,40.00,8,4,15,0.00
2013-6-12,79.0,65.7,59.0,64.0,60.2,53.0,100,85,41,0.00,40.00,6,3,14,0.04
2013-6-13,78.0,65.1,54.0,59.0,53.9,49.0,100,72,38,0.00,40.00,10,5,20,0.04
2013-6-14,79.0,63.3,45.0,54.0,49.6,45.0,100,67,31,0.00,40.00,6,4,13,0.00
2013-6-15,75.0,63.4,56.0,69.0,59.2,47.0,100,87,67,0.00,40.00,5,3,14,0.25
2013-6-16,83.0,66.0,57.0,67.0,58.9,52.0,100,83,39,0.00,40.00,9,6,21,0.24
2013-6-17,76.0,62.2,51.0,64.0,57.4,51.0,100,86,58,0.00,40.00,9,4,16,0.18
2013-6-18,73.0,59.1,42.0,56.0,45.3,40.0,99,65,36,0.00,40.00,8,4,15,0.01
2013-6-19,78.0,59.6,38.0,55.0,46.6,38.0,100,69,32,0.00,40.00,7,3,14,0.00
2013-6-20,85.0,65.3,49.0,63.0,56.1,49.0,100,77,44,0.00,40.00,8,3,15,0.00
2013-6-22,72.0,67.5,63.0,66.0,63.9,62.0,100,88,81,0.00,40.00,12,5,24,0.01
2013-6-23,86.0,73.0,63.0,74.0,67.2,63.0,100,84,62,0.00,40.00,10,6,21,0.26
2013-6-24,85.0,74.4,61.0,73.0,68.6,61.0,100,84,66,0.00,40.00,7,4,17,0.00
2013-6-25,85.0,73.9,66.0,71.0,68.2,66.0,100,84,56,0.00,40.00,7,3,14,0.00
2013-6-26,85.0,72.9,63.0,75.0,68.6,63.0,100,88,59,0.00,40.00,7,3,21,1.30
2013-6-27,85.0,70.7,64.0,75.0,67.3,64.0,100,91,54,0.00,40.00,8,4,23,1.53
2013-6-28,78.0,66.0,60.0,69.0,63.7,59.0,100,93,67,0.00,40.00,7,3,14,0.71
2013-6-29,74.0,65.3,58.0,64.0,59.2,51.0,100,82,52,0.00,40.00,9,4,21,0.16
2013-6-30,82.0,66.7,50.0,54.0,47.7,41.0,94,56,25,0.00,40.00,8,5,18,0.01
2013-7-1,84.0,66.0,48.0,60.0,53.3,48.0,100,70,35,0.00,40.00,7,3,15,0.00
2013-7-2,78.0,64.0,48.0,56.0,46.1,40.0,93,58,28,0.00,40.00,8,5,14,0.00
2013-7-3,74.0,64.5,52.0,61.0,55.7,49.0,94,75,52,0.00,40.00,4,2,10,0.00
2013-7-4,83.0,70.2,57.0,65.0,60.1,57.0,100,74,44,0.00,40.00,8,4,18,0.00
2013-7-5,87.0,72.0,56.0,66.0,60.3,56.0,100,71,39,0.00,40.00,9,4,19,0.00
2013-7-6,89.0,72.3,61.0,68.0,64.3,61.0,100,79,46,0.00,40.00,8,4,16,0.00
2013-7-7,84.0,72.7,64.0,74.0,69.1,64.0,100,89,65,0.00,40.00,6,3,12,0.01
2013-7-8,86.0,72.8,68.0,72.0,70.2,68.0,100,92,59,0.00,40.00,6,3,17,1.36
2013-7-9,82.0,71.8,64.0,74.0,69.4,64.0,100,93,69,0.00,40.00,8,3,14,0.21
2013-7-10,78.0,66.4,55.0,69.0,55.6,-99.9,100,75,46,0.00,40.00,12,6,25,0.08
2013-7-11,83.0,66.0,51.0,60.0,55.2,51.0,100,73,35,0.00,40.00,5,3,11,0.00
2013-7-12,84.0,67.1,52.0,64.0,58.3,52.0,100,77,46,0.00,40.00,8,4,16,0.00
2013-7-13,85.0,70.2,58.0,64.0,60.9,58.0,100,76,42,0.00,40.00,7,4,16,0.00
2013-7-14,89.0,71.5,55.0,70.0,63.6,55.0,100,79,50,0.00,40.00,6,3,14,0.00
2013-7-15,90.0,72.9,61.0,75.0,67.8,61.0,100,86,53,0.00,40.00,5,2,14,0.00
2013-7-16,91.0,83.9,73.0,78.0,75.2,72.0,98,76,64,0.00,40.00,7,4,15,0.00
2013-7-17,94.0,80.8,69.0,77.0,72.3,69.0,100,79,47,0.00,40.00,10,4,20,0.00
2013-7-18,94.0,83.2,69.0,77.0,72.2,69.0,100,72,49,0.00,40.00,10,6,20,0.00
2013-7-19,92.0,79.6,64.0,77.0,68.1,61.0,97,70,39,0.00,40.00,13,7,32,0.15
2013-7-20,76.0,65.9,59.0,64.0,56.8,-99.9,99,77,51,0.00,40.00,6,4,13,0.15
2013-7-21,69.0,60.7,54.0,61.0,53.4,47.0,97,77,65,0.00,40.00,7,4,12,0.00
2013-7-22,87.0,67.7,51.0,71.0,61.9,51.0,99,84,56,0.00,40.00,11,4,30,0.18
2013-7-23,73.0,63.1,50.0,66.0,53.9,48.0,99,75,42,0.00,40.00,10,5,24,0.19
2013-7-24,76.0,59.1,46.0,60.0,51.8,45.0,99,81,42,0.00,40.00,5,2,11,0.01
2013-7-25,79.0,65.7,49.0,66.0,58.8,49.0,99,81,53,0.00,40.00,9,4,19,0.27
2013-7-26,72.0,62.6,53.0,67.0,61.4,52.0,100,96,82,0.00,40.00,9,4,31,1.24
2013-7-27,60.0,53.3,46.0,52.0,48.6,45.0,99,85,59,0.00,40.00,10,5,16,0.38
2013-7-28,61.0,54.2,48.0,59.0,52.5,47.0,99,94,84,0.00,40.00,7,5,15,0.14
2013-7-29,77.0,61.4,52.0,62.0,55.9,51.0,98,84,58,0.00,40.00,6,3,14,0.01
2013-7-30,73.0,62.6,54.0,65.0,60.0,54.0,100,92,71,0.00,40.00,4,2,9,0.01
2013-7-31,81.0,67.2,60.0,68.0,63.2,60.0,100,88,60,0.00,40.00,7,4,23,0.02
2013-8-1,78.0,61.2,52.0,60.0,55.5,52.0,100,85,49,0.00,40.00,11,4,19,0.02
2013-8-2,79.0,64.3,53.0,61.0,55.7,52.0,99,77,42,0.00,40.00,9,3,17,0.00
2013-8-3,74.0,59.0,47.0,60.0,52.7,47.0,99,83,50,0.00,40.00,7,3,14,0.00
2013-8-4,74.0,58.9,46.0,55.0,50.0,45.0,99,77,39,0.00,40.00,5,2,10,0.00
2013-8-5,73.0,61.5,51.0,64.0,58.0,50.0,99,89,65,0.00,40.00,7,3,14,0.00
2013-8-6,81.0,68.0,59.0,65.0,62.3,59.0,99,84,53,0.00,40.00,7,3,15,0.00
2013-8-7,77.0,64.5,53.0,65.0,60.1,52.0,100,87,59,0.00,40.00,6,4,34,0.58
2013-8-8,77.0,57.6,45.0,61.0,52.0,45.0,99,85,43,0.00,40.00,7,2,11,0.00
2013-8-9,78.0,63.5,51.0,63.0,54.3,49.0,99,76,39,0.00,40.00,9,4,21,0.00
2013-8-10,73.0,62.9,54.0,61.0,56.6,53.0,98,82,51,0.00,40.00,5,2,12,0.00
2013-8-11,77.0,61.6,50.0,63.0,56.5,50.0,99,85,52,0.00,40.00,6,2,12,0.00
2013-8-12,80.0,62.1,52.0,67.0,56.2,48.0,99,83,50,0.00,40.00,8,3,19,0.00
2013-8-13,69.0,54.5,44.0,54.0,45.3,-99.9,98,77,49,0.00,40.00,8,4,20,0.00
2013-8-14,71.0,53.8,38.0,54.0,46.1,37.0,98,80,45,0.00,40.00,5,2,12,0.00
2013-8-15,78.0,47.9,43.0,59.0,33.9,-99.9,98,81,40,0.00,40.00,7,2,15,0.00
2013-8-16,82.0,56.2,47.0,60.0,46.5,-99.9,99,83,39,0.00,40.00,5,2,11,0.00
2013-8-17,83.0,62.7,50.0,65.0,53.5,-99.9,99,79,35,0.00,40.00,6,2,13,0.00
2013-8-18,83.0,64.5,50.0,64.0,56.6,50.0,99,79,44,0.00,40.00,7,3,13,0.00
2013-8-19,83.0,62.2,51.0,64.0,49.5,-99.9,99,78,47,0.00,40.00,9,4,17,0.00
2013-8-20,88.0,70.9,58.0,68.0,61.4,-99.9,99,78,48,0.00,40.00,9,4,18,0.00
2013-8-21,90.0,76.0,64.0,73.0,67.9,64.0,99,78,54,0.00,40.00,8,5,52,1.17
2013-8-22,81.0,67.6,59.0,68.0,61.2,53.0,100,83,40,0.00,40.00,4,2,12,1.17
2013-8-23,81.0,65.1,51.0,61.0,56.3,51.0,99,78,44,0.00,40.00,6,3,12,0.00
2013-8-24,83.0,65.3,51.0,63.0,55.5,-99.9,99,77,42,0.00,40.00,8,4,16,0.00
2013-8-25,93.0,78.1,67.0,74.0,68.9,63.0,94,76,52,0.00,40.00,10,6,23,0.00
2013-8-26,85.0,75.4,68.0,77.0,71.2,66.0,99,87,70,0.00,40.00,7,4,22,0.24
2013-8-27,88.0,76.1,71.0,80.0,73.7,70.0,99,93,73,0.00,40.00,5,3,13,0.25
2013-8-28,85.0,77.6,70.0,74.0,70.9,68.0,99,82,56,0.00,40.00,5,2,9,0.84
2013-8-29,85.0,74.1,65.0,74.0,69.7,65.0,99,87,60,0.00,40.00,7,3,15,0.01
2013-8-30,84.0,72.7,61.0,75.0,67.5,60.0,99,86,60,0.00,40.00,9,4,26,0.61
2013-8-31,78.0,64.2,56.0,67.0,59.3,-99.9,99,89,67,0.00,40.00,5,2,9,0.00
2013-9-1,80.0,67.3,60.0,72.0,64.0,60.0,99,90,61,0.00,40.00,8,4,19,0.35
2013-9-2,66.0,58.8,50.0,62.0,53.3,49.0,97,83,60,0.00,40.00,8,5,18,0.08
2013-9-3,75.0,56.4,43.0,57.0,49.4,42.0,98,82,46,0.00,40.00,7,3,15,0.00
2013-9-4,73.0,60.9,51.0,63.0,57.0,50.0,99,89,69,0.00,40.00,7,3,11,0.00
2013-9-5,72.0,57.5,44.0,56.0,49.7,43.0,98,79,46,0.00,40.00,5,3,10,0.00
2013-9-6,81.0,62.1,45.0,68.0,56.3,44.0,98,84,58,0.00,40.00,7,3,12,0.00
2013-9-7,88.0,70.8,63.0,76.0,64.5,-99.9,99,85,57,0.00,40.00,8,4,27,0.04
2013-9-8,73.0,62.6,52.0,59.0,53.6,50.0,97,75,46,0.00,40.00,8,5,18,0.04
2013-9-9,80.0,68.5,59.0,74.0,65.7,58.0,99,91,77,0.00,40.00,5,3,12,0.01
2013-9-10,87.0,78.4,68.0,73.0,69.5,66.0,99,76,58,0.00,40.00,9,6,19,0.02
2013-9-11,83.0,69.8,59.0,68.0,64.4,58.0,99,85,49,0.00,40.00,9,4,19,0.02
2013-9-12,71.0,60.4,51.0,58.0,51.7,43.0,98,76,48,0.00,40.00,11,5,24,0.00
2013-9-13,64.0,51.0,40.0,50.0,42.7,39.0,98,78,45,0.00,40.00,6,3,14,0.00
2013-9-14,69.0,51.4,35.0,53.0,42.6,-99.9,98,79,45,0.00,40.00,8,3,17,0.00
2013-9-15,65.0,54.7,43.0,56.0,50.6,40.0,98,87,71,0.00,40.00,9,4,17,0.34
2013-9-16,62.0,46.4,34.0,46.0,39.7,34.0,98,81,46,0.00,40.00,7,3,14,0.01
2013-9-17,68.0,49.4,31.0,55.0,44.2,30.0,97,85,57,0.00,40.00,8,3,15,0.00
2013-9-18,63.0,56.1,54.0,62.0,55.1,52.0,99,97,90,0.00,40.00,5,3,11,0.53
2013-9-19,82.0,68.0,59.0,75.0,65.8,59.0,99,93,74,0.00,40.00,9,4,20,0.02
2013-9-20,72.0,65.2,55.0,67.0,60.8,51.0,99,87,67,0.00,40.00,9,6,22,0.01
2013-9-21,58.0,48.9,39.0,51.0,42.8,-99.9,98,84,62,0.00,40.00,10,5,21,0.01
2013-9-22,57.0,43.8,31.0,45.0,37.9,30.0,98,83,54,0.00,40.00,6,2,11,0.00
2013-9-23,64.0,46.8,32.0,50.0,41.7,31.0,98,85,56,0.00,40.00,7,3,14,0.00
2013-9-24,71.0,51.2,37.0,58.0,46.6,36.0,98,87,55,0.00,40.00,5,2,11,0.00
2013-9-25,67.0,50.9,38.0,55.0,46.6,37.0,98,88,55,0.00,40.00,5,2,10,0.00
2013-9-26,72.0,55.0,43.0,59.0,50.9,42.0,99,88,52,0.00,40.00,6,3,11,0.00
2013-9-27,76.0,55.4,42.0,61.0,49.7,41.0,99,84,52,0.00,40.00,9,3,18,0.00
2013-9-28,76.0,58.6,42.0,62.0,51.2,-99.9,100,82,54,0.00,40.00,12,6,24,0.22
2013-9-29,68.0,52.1,41.0,55.0,47.5,41.0,100,87,48,0.00,40.00,6,3,15,0.22
2013-9-30,69.0,53.2,40.0,52.0,46.2,40.0,100,81,45,0.00,40.00,9,4,21,0.00
2013-10-1,63.0,63.0,63.0,52.0,52.0,52.0,68,68,68,0.00,40.00,8,8,18,0.00
2013-10-2,71.0,48.1,36.0,48.0,40.2,35.0,98,81,30,0.00,40.00,6,3,10,0.00
2013-10-3,69.0,56.9,47.0,58.0,52.8,45.0,98,87,65,0.00,40.00,7,4,20,0.24
2013-10-4,56.0,54.9,53.0,55.0,53.7,52.0,98,96,94,0.00,40.00,9,6,18,0.40
2013-10-5,60.0,57.7,55.0,60.0,57.5,54.0,100,99,96,0.00,40.00,8,6,19,1.24
2013-10-6,60.0,54.5,47.0,60.0,48.9,40.0,100,84,52,0.00,40.00,9,5,18,0.03
2013-10-7,63.0,50.1,39.0,49.0,43.3,38.0,100,81,46,0.00,40.00,10,5,23,0.04
2013-10-8,71.0,48.3,32.0,51.0,41.5,32.0,99,82,44,0.00,40.00,9,3,19,0.01
2013-10-9,71.0,55.9,43.0,54.0,48.9,43.0,100,81,46,0.00,40.00,8,4,18,0.00
2013-10-10,70.0,53.4,38.0,52.0,46.4,38.0,99,81,45,0.00,40.00,6,3,12,0.00
2013-10-11,72.0,56.1,43.0,60.0,50.5,43.0,100,84,53,0.00,40.00,9,4,21,0.00
2013-10-12,69.0,58.5,50.0,61.0,48.7,-99.9,99,74,47,0.00,40.00,11,6,27,0.02
2013-10-13,59.0,49.1,36.0,45.0,38.8,35.0,97,70,44,0.00,40.00,10,5,22,0.02
2013-10-14,59.0,43.8,30.0,46.0,37.1,29.0,98,81,43,0.00,40.00,6,3,15,0.00
2013-10-15,55.0,50.2,42.0,55.0,49.5,41.0,100,97,92,0.00,40.00,8,4,20,0.77
2013-10-16,51.0,47.6,44.0,50.0,44.9,41.0,100,91,76,0.00,40.00,7,4,15,0.02
2013-10-17,53.0,42.6,32.0,42.0,38.2,32.0,99,87,51,0.00,40.00,7,2,13,0.00
2013-10-18,49.0,42.7,37.0,46.0,41.6,36.0,100,96,81,0.00,40.00,6,3,15,0.03
2013-10-19,50.0,38.6,29.0,38.0,31.9,-99.9,99,82,48,0.00,40.00,10,3,18,0.01
2013-10-20,45.0,37.2,30.0,39.0,35.1,29.0,99,92,67,0.00,40.00,6,3,16,0.03
2013-10-21,40.0,36.3,31.0,40.0,28.8,20.0,100,76,53,0.00,40.00,11,7,21,0.03
2013-10-22,44.0,36.8,29.0,33.0,27.1,23.0,90,69,48,0.00,40.00,9,6,22,0.00
2013-10-23,45.0,33.8,26.0,27.0,24.4,20.0,94,71,46,0.00,40.00,12,5,22,0.00
2013-10-24,45.0,35.5,26.0,29.0,24.8,21.0,89,66,47,0.00,40.00,10,6,22,0.00
2013-10-25,48.0,35.7,24.0,33.0,26.0,23.0,95,71,45,0.00,40.00,12,5,24,0.00
2013-10-26,50.0,42.7,32.0,41.0,29.8,-99.9,96,63,47,0.00,40.00,13,6,31,0.01
2013-10-27,52.0,38.6,29.0,33.0,29.0,27.0,96,72,38,0.00,40.00,10,4,19,0.01
2013-10-28,40.0,34.1,24.0,31.0,20.4,-99.9,87,62,42,0.00,40.00,10,6,24,0.00
2013-10-29,38.0,31.8,22.0,35.0,27.1,19.0,94,83,67,0.00,40.00,5,3,11,0.00
2013-10-30,52.0,43.7,37.0,50.0,42.0,35.0,100,94,80,0.00,40.00,5,1,12,0.09
2013-10-31,55.0,51.2,46.0,55.0,51.2,46.0,100,100,100,0.00,40.00,8,2,21,0.53
2013-11-1,47.0,44.2,41.0,46.0,43.6,41.0,100,98,85,0.00,40.00,7,5,21,0.40
2013-11-2,44.0,38.8,35.0,41.0,35.0,-99.9,100,90,70,0.00,40.00,6,3,15,0.01
2013-11-3,47.0,39.8,35.0,38.0,35.2,33.0,98,85,58,0.00,40.00,7,4,14,0.01
2013-11-4,52.0,45.7,40.0,45.0,40.0,37.0,97,81,58,0.00,40.00,13,8,26,0.00
2013-11-5,51.0,42.4,30.0,45.0,39.1,30.0,100,89,56,0.00,40.00,10,4,20,0.00
2013-11-6,41.0,36.3,26.0,41.0,33.9,24.0,99,91,71,0.00,40.00,10,6,22,0.00
2013-11-7,39.0,30.3,21.0,28.0,22.4,19.0,96,75,46,0.00,40.00,9,5,20,0.00
2013-11-8,39.0,31.7,23.0,35.0,27.0,22.0,96,83,66,0.00,40.00,6,4,13,0.00
2013-11-9,44.0,39.5,36.0,42.0,33.6,-99.9,100,84,65,0.00,40.00,13,7,31,0.00
2013-11-10,44.0,39.9,36.0,31.0,27.6,25.0,73,62,48,0.00,40.00,11,7,23,0.00
2013-11-11,39.0,29.8,25.0,35.0,18.6,7.0,98,65,39,0.00,40.00,12,6,27,0.00
2013-11-12,28.0,22.5,17.0,14.0,9.4,6.0,79,58,39,0.00,40.00,8,6,20,0.00
2013-11-13,44.0,30.1,17.0,25.0,17.1,10.0,80,60,41,0.00,40.00,12,7,25,0.00
2013-11-14,44.0,35.8,29.0,36.0,24.6,17.0,100,66,47,0.00,40.00,7,4,15,0.00
2013-11-15,50.0,33.8,24.0,38.0,30.4,23.0,100,89,60,0.00,40.00,6,2,10,0.00
2013-11-16,53.0,41.2,29.0,53.0,39.3,-99.9,100,97,94,0.00,40.00,9,5,19,1.20
2013-11-17,54.0,47.8,39.0,54.0,47.0,32.0,100,97,74,0.00,40.00,17,7,41,1.04
2013-11-18,40.0,32.2,26.0,32.0,21.6,17.0,77,65,54,0.00,40.00,15,10,34,0.02
2013-11-19,35.0,26.9,17.0,27.0,19.8,16.0,94,76,51,0.00,40.00,6,3,14,0.00
2013-11-20,42.0,35.6,30.0,34.0,28.7,25.0,98,77,54,0.00,40.00,10,5,19,0.02
2013-11-21,39.0,35.9,33.0,39.0,35.7,33.0,100,99,95,0.00,40.00,5,2,14,0.07
2013-11-22,33.0,28.6,24.0,33.0,19.6,10.0,100,70,49,0.00,40.00,10,6,22,0.02
2013-11-23,24.0,14.9,7.0,13.0,-0.0,-99.9,69,54,38,0.00,40.00,14,8,28,0.01
2013-11-24,23.0,16.5,6.0,4.0,0.6,-2.0,73,51,36,0.00,40.00,9,6,20,0.01
2013-11-25,27.0,25.7,23.0,9.0,6.2,4.0,45,43,41,0.00,40.00,11,9,25,0.00
2013-11-26,29.0,29.0,29.0,6.0,6.0,6.0,37,37,37,0.00,40.00,6,6,21,0.00
2013-11-27,25.0,25.0,25.0,9.0,9.0,9.0,50,50,50,0.00,40.00,6,6,15,0.00